GFSMW_sfc_30mbdewp_276.txt.gz
Dewpoint
34 35 38 42 47 50 46 44 45 44 43 42 42 40 38 39 38 38 39 40 40 40 40 38 39 39 40 41 41 41 40 41 43 40 36 38 44 49 57 53 52 55 51
30 31 33 36 41 47 47 43 41 41 40 38 38 37 37 36 36 37 37 37 38 38 37 38 37 38 36 39 39 40 36 35 41 41 36 30 31 46 34 44 43 43 39
28 28 29 31 34 37 41 42 42 40 38 38 37 36 35 33 31 32 33 36 36 37 38 38 39 38 37 37 38 39 38 35 37 42 38 32 30 34 35 34 37 35 37
27 26 27 27 29 31 33 35 36 37 36 34 33 32 29 29 31 31 33 34 36 37 38 39 40 40 39 40 38 40 39 39 37 38 36 40 39 34 35 33 31 35 34
27 26 26 27 28 30 31 32 32 33 34 34 33 30 30 30 30 32 33 35 36 37 37 39 39 39 39 41 41 41 41 39 38 37 36 36 35 35 34 31 32 34 34
28 27 27 27 28 30 31 31 30 31 32 32 33 32 31 29 29 30 30 31 32 34 37 38 39 39 39 40 40 40 40 39 38 38 36 36 35 35 35 34 34 34 33
28 27 27 27 28 30 32 31 29 30 31 31 31 32 32 32 32 30 30 30 31 34 37 37 38 38 40 40 39 39 38 38 38 38 36 36 36 36 35 35 34 33 34
29 28 27 27 29 31 31 30 30 31 31 30 31 31 30 30 30 31 31 32 32 34 37 37 38 38 38 37 37 36 36 37 37 37 37 36 35 35 35 35 35 33 32
30 28 27 28 29 30 31 32 31 30 30 30 30 31 31 31 32 33 33 33 33 34 36 37 37 37 36 35 35 35 35 36 36 36 36 35 35 35 35 35 35 35 32
30 29 28 29 29 30 32 33 32 30 31 31 30 30 31 31 32 33 34 34 35 35 35 36 36 35 34 34 34 33 34 34 34 33 34 33 33 33 33 33 33 33 34
31 29 29 29 29 30 32 33 31 31 31 31 30 31 31 32 32 33 33 34 35 34 34 34 34 32 33 34 33 32 33 33 33 33 33 32 32 32 32 32 32 31 32
32 30 29 30 29 29 31 32 31 31 31 31 31 31 31 31 32 33 34 35 34 34 33 34 33 32 32 32 32 32 32 32 32 32 31 31 31 31 31 30 30 30 31
32 31 30 30 29 29 29 30 31 29 29 29 30 30 30 31 32 33 34 33 33 34 32 33 32 32 32 31 31 32 32 32 32 32 31 31 30 30 30 30 29 29 29
32 31 30 30 30 29 29 29 29 29 28 28 28 28 29 30 31 32 32 32 32 31 31 32 32 31 30 30 30 31 31 31 31 32 32 31 30 30 30 28 29 29 30
33 31 30 30 30 30 29 28 29 28 28 27 26 28 30 31 31 31 32 32 31 31 31 31 31 30 27 27 29 31 30 30 29 30 30 30 29 30 30 28 29 29 29
33 31 31 30 30 30 29 28 29 28 28 27 26 28 29 30 31 31 32 32 31 31 30 30 30 29 25 29 29 30 29 28 28 28 29 28 27 29 30 29 29 30 28
33 32 31 30 31 30 29 29 29 29 28 28 27 28 28 29 30 30 30 31 31 31 29 30 29 29 27 28 28 28 27 27 28 28 28 27 27 29 27 28 28 29 29
33 33 32 31 31 30 29 30 29 29 29 28 26 27 28 28 28 29 29 30 30 30 29 28 29 28 26 28 28 28 27 26 27 28 28 28 27 27 26 26 27 27 28
35 34 33 32 31 30 29 30 29 29 29 28 25 26 27 27 28 27 28 28 27 28 27 26 27 28 28 27 28 28 26 25 26 27 28 27 26 26 26 25 25 25 25
36 35 34 33 32 31 30 30 29 29 28 28 25 26 27 26 26 27 26 27 25 24 23 24 27 25 28 26 26 26 25 25 25 27 27 27 26 26 26 25 24 24 25
35 35 34 33 32 31 31 29 29 28 28 28 26 26 26 26 27 27 26 25 23 25 25 24 26 26 26 27 26 26 25 24 25 26 27 27 26 25 25 25 24 24 26
34 34 33 33 33 32 31 29 28 29 29 27 25 26 26 25 26 26 26 24 25 25 26 26 26 26 26 25 26 25 25 25 25 25 26 26 24 25 25 24 25 25 27
33 33 32 32 31 31 30 29 29 28 29 26 24 25 26 24 25 25 25 24 24 24 24 24 25 25 25 25 25 25 25 25 25 25 25 25 24 24 25 23 23 24 25
33 32 31 31 31 30 29 29 29 29 27 25 24 25 24 23 23 22 23 23 24 24 23 23 23 23 22 22 24 23 25 25 23 25 26 25 24 23 23 22 22 22 22
32 31 31 31 31 30 29 29 29 27 25 24 24 24 23 23 23 22 23 23 25 26 25 25 22 23 21 21 22 22 20 21 21 24 23 22 21 18 18 18 20 21 21
31 30 30 30 30 29 28 29 28 26 24 23 23 22 23 23 23 24 25 26 25 25 23 21 22 20 20 19 19 18 18 17 18 18 17 18 17 14 14 14 15 17 19

GFSMW_sfc_30mbdewp_279.txt.gz
Dewpoint
43 45 47 50 53 51 49 49 48 46 46 46 44 43 44 44 43 42 41 41 41 41 41 39 38 38 40 40 41 40 36 34 41 38 33 34 38 44 40 38 42 40 39
39 41 44 49 52 51 48 47 46 45 45 45 45 44 41 40 40 39 39 38 39 39 38 39 38 39 37 40 41 41 38 35 40 38 35 29 32 36 36 40 40 38 38
36 37 39 43 49 51 48 45 43 42 41 42 41 40 39 37 35 34 35 37 37 38 40 40 41 39 39 39 40 42 40 37 37 39 36 32 31 35 37 37 35 39 36
33 33 35 37 40 45 48 48 45 43 42 41 40 38 35 33 33 33 35 36 38 38 39 41 41 41 41 42 41 42 41 40 37 38 37 40 38 35 34 34 33 36 35
30 30 31 32 34 37 39 40 40 38 38 38 37 35 33 33 32 34 35 37 38 38 39 40 41 41 41 42 42 42 41 39 38 37 36 36 35 35 34 33 33 32 33
30 28 29 29 29 31 34 35 34 35 35 34 34 33 32 30 31 32 32 32 34 37 39 39 41 41 41 41 41 41 41 41 40 39 37 36 35 34 34 33 32 32 32
30 29 28 27 28 30 33 32 31 32 33 33 34 34 33 34 34 32 31 31 33 36 39 39 40 39 40 40 40 39 38 40 39 39 37 36 35 36 35 34 33 32 32
31 29 28 27 29 31 31 29 29 30 31 32 33 33 33 31 31 32 32 32 34 37 39 39 39 38 37 38 38 37 37 39 38 38 37 35 35 34 34 33 32 32 31
32 30 29 28 29 31 31 30 30 30 30 31 32 32 32 30 33 35 34 34 34 36 38 38 37 36 36 36 35 36 36 37 35 35 36 34 33 34 33 33 32 31 30
32 31 29 29 29 31 31 32 31 29 30 31 32 32 33 33 34 34 34 35 36 36 37 36 36 34 35 35 34 33 35 35 35 34 34 33 33 32 32 32 31 30 30
33 31 29 29 29 30 32 33 31 30 31 31 30 32 31 33 34 34 35 36 35 35 35 34 32 33 33 34 34 32 33 33 34 34 33 33 32 32 31 31 30 29 29
34 32 30 29 29 30 32 32 31 31 32 31 31 32 32 32 33 34 35 36 35 34 34 33 32 32 32 33 33 33 33 32 32 33 32 32 31 31 31 30 29 29 29
34 32 30 30 29 30 31 31 31 30 31 30 31 31 31 32 33 34 35 35 35 33 33 33 32 32 32 31 31 32 32 32 32 33 32 31 31 30 30 30 28 28 28
35 32 31 30 29 29 30 30 30 30 29 29 29 30 30 31 33 33 33 33 33 32 32 32 32 31 29 29 30 31 32 31 31 32 31 31 29 30 29 27 28 27 28
35 33 32 31 30 30 30 30 29 29 28 28 27 29 31 32 32 32 32 32 32 31 31 32 31 28 25 26 29 33 30 29 29 30 30 29 29 31 31 27 27 28 29
35 33 32 31 30 29 29 29 29 28 27 27 27 29 30 30 31 32 32 33 32 31 31 30 30 28 23 29 29 30 32 29 28 29 29 28 28 29 28 28 28 28 28
35 33 33 32 32 30 30 30 30 29 27 27 27 29 29 30 31 32 32 32 32 31 31 30 30 29 26 29 29 29 31 28 29 29 29 27 26 29 27 27 27 26 26
35 33 34 33 32 32 30 31 30 29 28 27 27 27 28 29 30 30 30 32 32 30 30 30 30 29 27 28 28 28 30 28 28 28 29 27 26 27 27 27 26 25 24
37 36 35 35 33 31 31 31 30 29 28 27 26 26 27 28 28 28 30 30 30 30 29 28 29 29 31 27 27 28 26 26 27 27 28 27 26 26 27 26 25 24 24
37 38 36 35 34 33 32 32 30 29 28 27 26 26 27 27 27 28 29 28 28 28 25 27 28 27 31 27 27 27 25 25 26 27 28 28 25 27 27 25 24 23 25
38 38 36 35 34 34 33 32 31 30 29 28 26 26 26 26 27 28 28 27 25 24 24 25 28 29 28 28 26 26 24 24 26 27 28 28 25 26 27 27 24 23 26
37 37 36 35 35 34 33 32 31 31 29 28 25 26 26 25 27 27 27 25 25 27 26 27 27 27 29 25 25 25 25 25 27 26 27 27 26 27 27 27 24 25 28
35 36 36 35 35 34 33 32 32 31 30 27 25 25 25 24 26 26 26 25 26 27 26 26 27 26 25 27 25 26 25 25 26 26 27 27 26 25 25 23 23 26 27
33 35 35 35 35 33 32 32 31 30 29 26 25 26 25 24 25 25 25 25 26 25 23 23 24 23 23 23 23 23 24 23 23 27 27 24 24 21 20 21 21 20 21
32 34 35 35 34 33 32 32 31 30 28 26 25 26 25 25 24 24 24 24 29 27 25 25 24 25 22 21 21 21 16 19 20 24 22 22 20 17 16 17 18 18 18
31 34 35 34 34 33 32 31 31 30 27 25 25 26 26 25 24 26 27 26 26 24 24 23 22 20 20 19 19 18 18 17 17 20 18 20 18 14 13 13 14 15 16

GFSMW_sfc_30mbdewp_285.txt.gz
Dewpoint
53 54 57 56 55 55 55 55 54 52 51 51 49 48 45 43 44 44 43 44 44 45 44 43 45 44 44 45 46 44 44 42 41 38 40 39 40 42 41 38 39 38 38
51 53 54 54 53 52 52 52 52 51 50 50 49 48 46 45 42 42 42 43 44 44 44 45 45 45 45 44 45 45 43 43 44 40 41 36 38 39 40 40 37 36 38
50 51 52 52 52 51 50 50 50 50 49 48 47 46 43 41 41 40 41 43 44 45 45 45 45 45 46 44 44 44 43 40 41 41 41 35 34 39 41 38 37 36 37
48 49 52 51 51 51 50 49 49 47 46 45 43 41 40 39 39 40 41 42 43 44 45 45 46 45 45 44 44 44 43 42 40 40 40 40 38 36 34 37 36 35 35
47 48 50 52 51 50 50 48 46 45 44 44 43 41 40 39 40 41 40 41 43 43 44 45 44 44 44 44 43 43 43 42 41 39 39 38 37 36 35 33 33 33 33
44 46 48 51 50 50 48 46 45 45 45 45 45 41 38 38 38 39 40 41 42 44 44 43 42 43 42 42 43 43 42 39 39 39 37 36 35 34 34 33 32 32 32
41 42 44 46 49 49 48 46 46 44 44 43 41 38 37 37 37 39 40 41 41 41 41 41 41 42 41 41 42 41 40 39 38 38 36 36 36 36 34 33 32 32 32
39 39 41 42 44 45 45 43 41 40 39 38 38 39 38 38 38 37 40 41 41 41 41 40 40 41 41 40 41 39 40 38 37 36 35 35 35 35 33 32 32 30 30
36 36 36 38 40 41 40 39 38 38 39 38 38 37 38 38 39 40 41 41 41 42 40 39 39 39 40 38 39 38 38 36 37 35 34 34 34 35 34 34 33 31 28
35 33 34 35 38 38 38 37 37 37 38 38 37 38 39 38 39 39 40 40 40 41 39 38 38 37 37 37 38 38 36 36 37 35 34 34 34 33 33 33 33 31 31
33 32 32 33 36 36 37 36 36 37 37 37 37 38 38 38 39 39 39 39 40 39 37 37 36 36 36 37 36 36 37 35 35 35 33 33 33 32 32 32 30 30 30
34 31 31 33 35 35 35 35 35 36 37 37 37 38 38 39 39 39 39 39 39 36 36 36 36 36 36 35 35 35 35 35 34 34 33 31 32 31 32 30 28 28 29
34 32 32 33 34 34 34 34 35 36 37 37 37 37 38 38 39 39 39 38 37 36 36 36 35 34 34 35 35 35 35 34 34 34 32 31 30 30 28 27 27 28 29
34 32 32 33 33 33 34 33 35 36 36 36 37 37 38 38 38 39 37 37 37 36 35 34 33 32 32 33 36 34 33 34 34 34 32 31 31 29 27 27 27 28 29
34 33 32 33 33 34 34 34 34 35 35 35 36 37 38 39 39 38 37 37 37 35 35 32 28 27 27 30 32 34 34 32 32 32 32 34 32 28 29 28 28 29 28
38 37 32 32 32 34 34 34 34 34 35 35 35 37 38 38 38 38 37 37 36 35 32 29 26 25 27 30 30 31 32 32 31 31 31 31 28 26 28 29 30 29 26
37 34 32 32 32 34 34 34 34 35 34 35 35 37 37 37 37 37 36 35 34 34 34 29 26 25 28 30 29 29 31 32 31 30 28 27 26 26 27 28 28 28 26
36 35 36 32 32 34 34 34 34 34 34 34 35 36 36 36 36 35 35 34 35 34 34 31 26 25 27 28 28 29 30 31 31 30 30 26 23 26 28 28 27 27 25
40 38 35 33 33 34 34 34 33 33 33 33 34 35 36 35 35 35 35 35 34 34 35 32 27 25 25 28 28 29 30 30 31 30 27 25 24 26 28 27 26 26 23
40 40 36 34 33 34 34 33 33 32 32 32 34 35 35 35 35 35 36 34 34 33 34 33 32 26 24 26 27 28 28 30 29 29 30 26 26 27 28 28 26 22 23
42 40 37 35 35 34 34 33 32 31 31 33 34 34 35 35 35 35 35 34 33 32 32 34 32 27 23 25 27 26 27 28 30 29 26 25 27 27 28 27 23 23 24
42 41 41 38 34 33 33 32 31 31 32 33 33 33 34 33 35 35 35 34 32 31 30 31 32 29 25 25 25 25 25 28 28 28 26 26 27 27 25 23 22 22 21
27 42 38 37 34 33 33 32 32 31 32 32 32 33 33 32 34 34 33 32 31 31 31 30 29 28 27 25 26 25 24 26 26 27 27 26 24 23 22 21 21 21 21
16 28 39 37 34 33 33 33 32 32 31 31 31 32 32 32 33 32 32 31 30 30 30 30 31 29 26 25 26 27 26 26 25 26 27 23 22 20 20 20 20 21 21
14 16 29 38 35 33 33 33 32 31 30 30 30 31 30 32 32 31 31 30 31 30 31 31 31 31 29 27 27 26 22 21 20 24 23 20 20 18 18 19 20 20 20
17 14 25 32 35 34 34 34 32 31 29 29 29 30 30 32 31 29 28 29 30 32 32 33 30 29 27 25 22 19 19 19 20 23 19 18 17 17 18 18 19 20 20

GFSMW_sfc_30mbdewp_288.txt.gz
Dewpoint
59 60 59 59 59 58 57 56 54 52 51 50 48 46 45 44 43 43 44 44 45 44 44 44 44 45 44 45 45 44 41 41 42 40 41 41 41 40 38 37 36 36 36
57 57 57 57 58 57 56 55 53 52 52 51 49 47 44 43 43 43 44 45 45 45 45 45 45 44 43 43 43 42 40 40 42 39 39 38 39 40 37 35 33 36 35
55 55 55 54 54 54 55 54 53 52 51 50 48 45 42 41 40 41 43 44 45 45 45 45 45 44 44 43 43 42 40 38 40 41 38 34 32 39 40 35 34 34 34
53 54 53 53 53 52 52 52 52 51 51 49 47 43 40 39 39 41 43 43 44 46 45 45 44 44 44 43 43 43 42 40 38 39 38 37 38 34 28 36 32 34 33
52 52 53 53 52 51 51 52 51 50 47 45 44 42 40 39 41 41 42 43 44 45 45 44 44 43 43 43 42 40 40 40 38 37 38 35 34 35 31 22 26 31 32
51 52 52 52 51 51 50 50 50 47 45 44 43 42 40 40 40 40 41 42 43 43 43 43 42 42 43 42 40 39 38 38 38 37 36 35 32 32 31 30 31 31 29
50 50 52 51 50 50 50 49 47 45 44 44 43 40 39 39 39 40 41 42 42 41 41 42 41 42 42 40 40 39 38 37 36 36 36 35 34 34 33 32 31 30 31
48 48 51 51 50 49 49 49 47 45 45 45 43 39 39 39 40 41 41 42 41 40 40 41 41 41 40 40 39 38 37 36 35 34 35 35 35 34 33 32 30 25 29
46 46 49 51 50 49 48 47 46 44 43 43 40 38 39 39 40 41 42 41 42 40 39 40 40 39 39 39 38 37 36 35 34 34 34 33 34 33 33 32 31 30 23
44 44 47 50 50 49 47 45 43 41 40 40 39 38 39 40 40 41 41 41 41 39 39 39 38 38 38 38 37 37 36 35 35 35 33 32 32 31 32 30 30 30 29
42 43 43 47 48 47 43 41 40 39 38 38 38 39 39 40 41 41 41 41 40 39 38 38 37 37 37 37 37 36 36 36 34 33 33 31 32 29 29 29 29 28 29
39 39 39 42 43 43 39 39 38 38 38 38 39 38 39 39 39 40 40 41 38 38 37 37 37 37 37 37 36 35 35 35 32 31 32 30 30 27 27 28 27 28 29
38 37 36 38 39 39 38 37 37 37 38 38 38 38 39 38 39 39 40 39 37 37 37 37 36 36 36 36 36 36 35 34 34 32 31 30 27 23 26 27 28 28 28
37 34 33 35 37 37 36 36 36 37 37 37 37 38 38 38 38 39 39 37 37 36 36 35 35 35 35 36 35 35 34 34 34 33 32 30 26 25 27 28 28 28 27
34 32 32 34 35 37 37 36 36 37 37 36 37 38 39 39 39 38 38 37 36 35 34 32 31 32 33 34 34 34 34 34 33 33 33 31 28 29 30 29 29 26 25
33 32 34 35 35 36 35 35 36 36 36 36 36 38 39 38 38 37 37 36 36 34 31 28 27 28 30 32 33 33 33 32 32 31 30 28 26 28 29 29 29 27 25
32 32 33 34 34 34 34 35 35 36 36 36 37 38 38 38 37 37 37 36 34 31 28 25 25 27 30 31 31 32 32 32 30 30 28 23 25 27 27 27 27 27 26
23 27 37 34 35 35 35 35 35 35 35 35 36 38 38 37 37 37 36 35 34 30 27 24 25 27 29 30 30 31 32 32 30 29 25 23 25 28 27 25 24 24 23
22 27 37 36 34 35 36 35 34 35 35 35 36 37 37 37 37 36 35 35 34 30 29 25 25 25 27 29 29 31 32 31 29 27 25 24 26 27 28 24 22 21 19
23 25 41 34 34 35 35 35 34 34 34 35 36 37 37 36 36 35 34 34 35 32 30 25 24 25 26 29 29 31 32 29 29 29 26 26 26 27 28 22 22 17 18
23 23 41 34 34 35 36 35 34 33 34 35 36 37 36 36 35 35 34 34 34 34 31 29 25 24 25 28 29 30 31 29 29 26 24 26 26 27 24 23 21 19 20
27 21 21 39 36 36 36 34 34 34 34 35 36 36 36 35 35 35 34 34 33 34 33 30 26 23 25 28 27 29 30 31 28 23 24 25 26 24 22 22 20 20 20
28 26 23 26 41 35 35 34 34 34 34 35 35 35 35 35 35 35 34 33 33 32 33 31 27 22 24 26 26 29 30 28 26 25 26 25 23 21 21 21 20 19 19
23 28 26 21 31 38 34 34 34 33 34 34 34 35 34 34 35 35 34 33 32 31 31 31 29 25 24 25 26 27 27 27 28 26 24 21 20 20 19 19 19 20 19
25 28 27 23 19 26 35 34 33 33 33 33 34 34 34 34 34 34 34 33 32 32 31 31 29 26 23 25 26 25 25 25 25 24 21 19 18 17 17 18 18 19 18
30 24 29 26 20 19 36 33 33 33 32 32 33 33 33 34 34 33 31 32 32 31 31 32 30 28 26 27 28 25 24 23 24 20 18 17 17 16 16 15 16 18 17